This is the latest recevied weather packets stored in our database for station/object N1IJV-10. If no packets are shown the sender has not sent any weather packets the latest 10 day(s).
| Time | Temp. | Humidity | Pressure | Rain* | Wind** | Luminosity | Snow |
|---|---|---|---|---|---|---|---|
| 1777484493 | 12.78° C | 70% | 1013 hPa | 0 mm | - | 135 W/m² | - |
| 1777484191 | 12.78° C | 72% | 1012.9 hPa | 0 mm | - | 157 W/m² | - |
| 1777483886 | 12.78° C | 69% | 1012.6 hPa | 0 mm | - | 141 W/m² | - |
| 1777483583 | 12.78° C | 68% | 1013.1 hPa | 0 mm | - | 183 W/m² | - |
| 1777483282 | 12.78° C | 68% | 1012.8 hPa | 0 mm | - | 810 W/m² | - |
| 1777482979 | 12.78° C | 71% | 1013.1 hPa | 0 mm | - | 234 W/m² | - |
| 1777482676 | 13.33° C | 70% | 1012.9 hPa | 0 mm | - | 103 W/m² | - |
| 1777482372 | 12.78° C | 68% | 1013 hPa | 0 mm | - | 206 W/m² | - |
| 1777482070 | 13.89° C | 67% | 1012.8 hPa | 0 mm | - | 127 W/m² | - |
| 1777481768 | 13.89° C | 66% | 1012.7 hPa | 0 mm | - | 789 W/m² | - |
| 1777481464 | 13.33° C | 69% | 1012.9 hPa | 0 mm | - | 822 W/m² | - |
| 1777481160 | 13.89° C | 68% | 1012.8 hPa | 0 mm | - | 230 W/m² | - |
| 1777480857 | 14.44° C | 66% | 1012.8 hPa | 0 mm | - | 881 W/m² | - |
| 1777480554 | 14.44° C | 68% | 1012.8 hPa | 0 mm | - | 828 W/m² | - |
| 1777480251 | 14.44° C | 70% | 1013 hPa | 0 mm | - | 873 W/m² | - |
| 1777479947 | 13.89° C | 69% | 1012.9 hPa | 0 mm | - | 832 W/m² | - |
| 1777479644 | 14.44° C | 66% | 1012.7 hPa | 0 mm | - | 190 W/m² | - |
| 1777479342 | 14.44° C | 69% | 1012.8 hPa | 0 mm | - | 732 W/m² | - |
| 1777479038 | 15° C | 68% | 1012.6 hPa | 0 mm | - | 481 W/m² | - |
| 1777478735 | 14.44° C | 68% | 1012.7 hPa | 0 mm | - | 467 W/m² | - |
| 1777478431 | 14.44° C | 68% | 1012.6 hPa | 0 mm | - | 733 W/m² | - |
| 1777478128 | 14.44° C | 69% | 1012.6 hPa | 0 mm | - | 715 W/m² | - |
| 1777477825 | 15° C | 66% | 1012.6 hPa | 0 mm | - | 189 W/m² | - |
| 1777477520 | 15° C | 67% | 1012.8 hPa | 0 mm | - | 337 W/m² | - |
| 1777477217 | 14.44° C | 69% | 1012.7 hPa | 0 mm | - | 684 W/m² | - |
* Rain latest hour (hover to see other rain measurements)
** Current wind speed in m/s (hover to see current wind gust speed)